CW6242 Weather Reports


time (UTC)temp
F
wind
direction
speed
knots
gust
knots
rain 1hr
in
rain 24hr
in
rain mn
in
humidity
%
barometer
mb
20260507142011 73 0.0 0.0 0.00 0.00 0.00 49 1007.7
20260507141012 73 0.0 2.6 0.00 0.00 0.00 51 1007.7
20260507140011 73 0.0 4.3 0.00 0.00 0.00 54 1007.7
20260507135011 72 0.0 0.0 0.00 0.00 0.00 57 1008.1
20260507134031 72 0.0 0.0 0.00 0.00 0.00 58 1008.0
20260507133051 72 0.0 0.0 0.00 0.00 0.00 57 1008.1
20260507132011 72 0.0 0.0 0.00 0.00 0.00 58 1008.5
20260507131031 71 0.0 0.0 0.00 0.00 0.00 57 1008.2
20260507130011 71 0.0 0.0 0.00 0.00 0.00 56 1008.3
20260507125011 73 0.0 0.0 0.00 0.00 0.00 54 1008.5
20260507124031 73 0.0 0.0 0.00 0.00 0.00 58 1008.7
20260507123010 72 158 0.9 8.7 0.00 0.00 0.00 56 1008.7
20260507122010 73 135 1.7 7.8 0.00 0.00 0.00 52 1008.8
20260507121011 73 158 0.9 10.4 0.00 0.00 0.00 50 1008.7
20260507120031 73 0 2.6 10.4 0.00 0.00 0.00 47 1008.4
20260507115011 73 0 2.6 10.4 0.00 0.00 0.00 46 1008.4
20260507114012 72 180 3.5 13.9 0.00 0.00 0.00 49 1008.6
20260507113013 72 158 5.2 14.8 0.00 0.00 0.00 46 1008.6
20260507112012 74 0 4.3 21.7 0.00 0.00 0.00 39 1008.5
20260507111013 73 0 4.3 13.9 0.00 0.00 0.00 39 1008.9
20260507110012 73 135 7.8 21.7 0.00 0.00 0.00 39 1008.9
20260507105012 73 0 9.6 21.7 0.00 0.00 0.00 37 1009.2
20260507104013 73 0 9.6 21.7 0.00 0.00 0.00 36 1009.1
20260507103032 73 0 10.4 20.0 0.00 0.00 0.00 35 1009.1
20260507102032 73 0 10.4 23.5 0.00 0.00 0.00 33 1008.9
20260507101013 73 0 10.4 23.5 0.00 0.00 0.00 33 1008.9
20260507100012 72 0 13.0 27.8 0.00 0.00 0.00 32 1008.7
20260507095012 73 0 10.4 22.6 0.00 0.00 0.00 32 1008.9
20260507094013 72 0 9.6 22.6 0.00 0.00 0.00 31 1009.0
20260507093012 72 0 7.8 26.9 0.00 0.00 0.00 35 1009.2
20260507092012 71 158 2.6 15.6 0.00 0.00 0.00 53 1009.8
20260507091012 71 45 2.6 8.7 0.00 0.00 0.00 57 1009.6
20260507090012 71 0.0 4.3 0.00 0.00 0.00 54 1009.7
20260507085032 69 315 2.6 7.8 0.00 0.00 0.00 65 1009.9
20260507084012 69 0.0 3.5 0.00 0.00 0.00 71 1009.8
20260507083012 68 270 0.9 5.2 0.00 0.00 0.00 72 1009.8
20260507082032 68 270 1.7 8.7 0.00 0.00 0.00 69 1009.9
20260507081012 69 0.0 0.0 0.00 0.00 0.00 67 1009.9
20260507080014 70 180 1.7 7.0 0.00 0.00 0.00 65 1009.9
20260507075014 71 180 5.2 17.4 0.00 0.00 0.00 47 1009.8
20260507074014 71 0 6.1 17.4 0.00 0.00 0.00 34 1009.6
20260507073034 70 0 7.8 20.0 0.00 0.00 0.00 31 1009.2
20260507072014 70 0 10.4 23.5 0.00 0.00 0.00 31 1009.3
20260507071014 69 0 12.2 32.2 0.00 0.00 0.00 30 1009.2
20260507070014 70 0 9.6 23.5 0.00 0.00 0.00 30 1009.3
20260507065014 70 0 10.4 22.6 0.00 0.00 0.00 29 1009.3
20260507064014 69 0 9.6 21.7 0.00 0.00 0.00 29 1009.6
20260507063034 69 0 8.7 16.5 0.00 0.00 0.00 31 1009.7
20260507062014 69 0 7.8 15.6 0.00 0.00 0.00 31 1009.9
20260507061014 68 0 6.1 14.8 0.00 0.00 0.00 31 1010.0
20260507060014 69 0 7.8 16.5 0.00 0.00 0.00 34 1009.9
20260507055014 68 0 8.7 20.0 0.00 0.00 0.00 30 1009.8
20260507054034 68 0 8.7 19.1 0.00 0.00 0.00 30 1009.7
20260507053014 68 0 12.2 24.3 0.00 0.00 0.00 30 1009.7
20260507052014 67 0 13.9 24.3 0.00 0.00 0.00 30 1009.4
20260507051013 66 0 10.4 20.0 0.00 0.00 0.00 31 1009.6
20260507050014 66 0 9.6 18.2 0.00 0.00 0.00 33 1009.7
20260507045014 66 0 10.4 18.2 0.00 0.00 0.00 32 1009.6
20260507044013 66 0 12.2 18.2 0.00 0.00 0.00 33 1009.6
20260507043014 67 0 13.0 22.6 0.00 0.00 0.00 32 1009.6
20260507042015 67 0 13.0 22.6 0.00 0.00 0.00 32 1009.8
20260507041015 67 0 10.4 22.6 0.00 0.00 0.00 31 1009.7
20260507040016 66 0 7.0 20.9 0.00 0.00 0.00 33 1010.0
20260507035015 65 90 1.7 10.4 0.00 0.00 0.00 38 1010.5
20260507034016 65 135 2.6 9.6 0.00 0.00 0.00 38 1010.5
20260507033016 64 0.0 5.2 0.00 0.00 0.00 45 1010.4
20260507032015 62 90 2.6 7.0 0.00 0.00 0.00 55 1010.4
20260507031016 62 0 7.0 12.2 0.00 0.00 0.00 60 1010.6
20260507030015 59 0 4.3 13.0 0.00 0.00 0.00 79 1010.6
20260507025016 59 45 0.9 6.1 0.00 0.00 0.00 85 1011.0
20260507024016 59 0.0 2.6 0.00 0.00 0.00 86 1010.9
20260507023015 59 113 0.9 6.1 0.00 0.00 0.00 87 1010.8
20260507022015 59 158 2.6 6.1 0.00 0.00 0.00 88 1011.0
20260507021156 59 180 0.9 5.2 0.00 0.00 0.00 89 1011.2
20260507020035 58 203 3.5 6.1 0.00 0.00 0.00 88 1011.1
20260507015036 60 0.0 0.0 0.00 0.00 0.00 90 1011.1
20260507014015 59 0.0 0.0 0.00 0.00 0.00 89 1011.1
20260507013035 59 0.0 0.0 0.00 0.00 0.00 89 1011.0
20260507012015 60 0.0 0.0 0.00 0.00 0.00 90 1010.9
20260507011015 60 0.0 0.0 0.00 0.00 0.00 89 1011.1
20260507010015 60 0.0 0.0 0.00 0.00 0.00 89 1011.4
20260507005015 60 225 3.5 8.7 0.00 0.00 0.00 88 1011.5
20260507004017 60 203 4.3 8.7 0.00 0.00 0.00 87 1011.4
20260507003017 60 0.0 0.9 0.00 0.00 0.00 87 1011.5
20260507002016 61 225 0.9 4.3 0.00 0.00 0.00 87 1011.8
20260507001016 61 0.0 0.0 0.00 0.00 0.00 86 1011.9
20260507000016 61 0.0 2.6 0.00 0.00 0.00 83 1011.8
20260506235016 61 0.0 5.2 0.00 0.00 0.00 81 1011.7
20260506234016 61 225 3.5 7.8 0.00 0.00 0.00 79 1011.8
20260506233036 61 225 3.5 9.6 0.00 0.00 0.00 77 1011.7
20260506232006 61 225 5.2 9.6 0.00 0.00 0.00 76 1011.9
20260506231006 62 225 3.5 9.6 0.00 0.00 0.00 76 1011.9
20260506230006 62 225 0.9 10.4 0.00 0.00 0.00 73 1012.3
20260506225006 62 225 1.7 9.6 0.00 0.00 0.00 70 1012.4
20260506224006 63 0.0 0.0 0.00 0.00 0.00 67 1012.4
20260506223008 63 0.0 0.0 0.00 0.00 0.00 65 1012.2
20260506222008 63 0.0 0.0 0.00 0.00 0.00 65 1012.4
20260506221008 63 0.0 0.0 0.00 0.00 0.00 66 1012.4
20260506220008 63 0.0 0.0 0.00 0.00 0.00 66 1012.4
20260506215027 63 0.0 0.0 0.00 0.00 0.00 67 1012.5
20260506214007 63 0.0 0.0 0.00 0.00 0.00 67 1012.6
20260506213007 63 0.0 0.0 0.00 0.00 0.00 67 1012.6
20260506212007 63 0.0 0.0 0.00 0.00 0.00 67 1012.5
20260506211007 63 0.0 0.0 0.00 0.00 0.00 66 1012.5
20260506210007 64 0.0 0.0 0.00 0.00 0.00 65 1012.5
20260506205027 64 0.0 0.0 0.00 0.00 0.00 64 1012.4
20260506204007 65 0.0 0.0 0.00 0.00 0.00 61 1012.3
20260506203027 65 0.0 0.9 0.00 0.00 0.00 62 1012.3
20260506202009 66 0.0 0.0 0.00 0.00 0.00 59 1012.3
20260506201008 66 0.0 0.0 0.00 0.00 0.00 57 1012.1
20260506200008 65 0.0 0.0 0.00 0.00 0.00 59 1011.6
20260506195008 65 0.0 6.1 0.00 0.00 0.00 62 1011.5
20260506194008 64 0.0 7.8 0.00 0.00 0.00 64 1011.2
20260506193008 65 203 0.9 7.8 0.00 0.00 0.00 64 1011.1
20260506192008 66 0.0 1.7 0.00 0.00 0.00 65 1012.2
20260506191008 66 45 0.9 7.8 0.00 0.00 0.00 60 1011.8
20260506190008 66 0 2.6 12.2 0.00 0.00 0.00 60 1011.1
20260506185008 65 113 1.7 8.7 0.00 0.00 0.00 58 1010.7
20260506184007 65 0.0 0.0 0.00 0.00 0.00 57 1011.0
20260506183050 65 0.0 0.0 0.00 0.00 0.00 58 1011.0
20260506182009 65 0.0 0.0 0.00 0.00 0.00 58 1011.0
20260506181010 65 0.0 0.0 0.00 0.00 0.00 59 1011.2
20260506180009 65 0.0 0.0 0.00 0.00 0.00 61 1011.4
20260506175009 64 0.0 0.0 0.00 0.00 0.00 65 1011.6
20260506174009 66 0.0 0.0 0.00 0.00 0.00 64 1011.7
20260506173110 66 0.0 0.0 0.00 0.00 0.00 59 1011.8
20260506172009 67 135 0.9 9.6 0.00 0.00 0.00 57 1011.4
20260506171009 67 0.0 2.6 0.00 0.00 0.00 54 1011.3
20260506170009 68 0.0 0.9 0.00 0.00 0.00 53 1011.2
20260506165009 67 0.0 0.0 0.00 0.00 0.00 52 1011.3
20260506164029 66 0.0 0.0 0.00 0.00 0.00 60 1011.1
20260506163010 66 0.0 0.0 0.00 0.00 0.00 61 1011.3
20260506162030 66 0.0 0.0 0.00 0.00 0.00 64 1011.5
20260506161009 66 0.0 0.0 0.00 0.00 0.00 64 1011.9
20260506160030 69 0.0 0.0 0.00 0.00 0.00 60 1012.3
20260506155009 70 0.0 0.0 0.00 0.00 0.00 55 1012.4
20260506154009 70 0.0 0.0 0.00 0.00 0.00 50 1012.5
20260506153009 70 0.0 0.0 0.00 0.00 0.00 51 1012.6
20260506152030 70 0.0 2.6 0.00 0.00 0.00 51 1012.6
20260506151009 69 0.0 2.6 0.00 0.00 0.00 51 1012.6
20260506150009 70 0.0 0.0 0.00 0.00 0.00 54 1012.7
20260506145011 70 0.0 0.0 0.00 0.00 0.00 49 1012.8
20260506144011 70 0.0 0.0 0.00 0.00 0.00 50 1012.8
20260506143011 70 0.0 0.0 0.00 0.00 0.00 51 1012.7